Lid_Strength_Index
5 7 7 8 9 10 10 11 11 11 12 12 12 12 12 13 13 13 13 13 13 14
7 7 8 8 8 10 10 11 11 12 12 13 13 13 13 14 13 13 14 14 13 14
7 7 7 8 9 11 11 11 12 12 13 13 13 13 13 13 13 13 13 13 14 14
7 6 8 9 10 11 12 12 12 12 13 13 13 13 13 13 13 13 14 14 14 14
6 7 9 9 11 12 12 12 12 12 12 13 13 14 13 13 13 13 14 14 14 14
8 9 10 11 11 12 13 13 12 12 13 13 14 13 13 13 13 13 13 13 13 14
9 10 10 11 12 13 13 13 13 13 13 14 13 13 13 13 13 13 13 13 13 14
9 10 11 13 13 13 13 13 13 14 14 13 13 13 13 13 14 13 14 14 13 14
10 11 13 14 14 14 14 14 14 15 14 14 13 11 10 13 13 13 13 14 14 15
12 14 14 15 15 15 15 15 15 15 14 15 14 10 10 11 13 13 14 14 14 15
14 15 15 15 15 15 15 15 15 15 15 15 13 10 10 10 13 14 14 14 15 14
14 14 15 15 16 16 15 15 15 15 15 14 14 10 10 11 13 14 14 14 14 14
14 15 15 15 16 16 15 15 15 15 15 14 13 10 10 11 13 14 14 14 14 13
15 15 15 16 16 16 16 15 16 16 16 15 14 13 10 10 13 13 13 14 15 14